This demonstration page uses our WeatherBlox Daily Observations layout. Learn more.

Left ArrowRight Arrow

36.17497, -115.13722

Hourly Observations for August 31, 2017

Temp ( °F °C ) Dew Point ( °F °C ) Humidity (%) Winds ( mph kmh ) Pressure ( in mb ) Visibility ( mi km ) Precip ( " mm )
12:53 am 00:53 Mostly Cloudy with Light Rain 86 30 54 12.2 33 33 WNW 24 39 29.93 1014 10 16.0934 N/A
1:53 am 01:53 Mostly Cloudy 86 30 50 10 29 29 N 14 22 29.94 1014 10 16.0934 N/A
2:53 am 02:53 Mostly Cloudy with Light Rain 83 28.3 55 12.8 38 38 NNW 12 19 29.91 1013 10 16.0934 N/A
3:53 am 03:53 Clear 83 28.3 53 11.7 36 36 NNW 8 13 29.89 1012 10 16.0934 N/A
4:53 am 04:53 Clear 82 27.8 55 12.8 40 40 NW 5 7 29.88 1012 10 16.0934 N/A
5:53 am 05:53 Clear 82 27.8 52 11.1 35 35 NNW 3 6 29.87 1012 10 16.0934 N/A
6:53 am 06:53 Sunny 82 27.8 55 12.8 40 40 ESE 6 9 29.91 1013 10 16.0934 N/A
7:53 am 07:53 Sunny 85 29.4 50 10 30 30 WNW 6 9 29.94 1014 10 16.0934 N/A
8:53 am 08:53 Sunny 88 31.1 51 10.6 28 28 N 6 9 29.94 1014 10 16.0934 N/A
9:53 am 09:53 Sunny 89 31.7 52 11.1 28 28 VRB 5 7 29.93 1014 10 16.0934 N/A
10:53 am 10:53 Sunny 93 33.9 49 9.4 22 22 E 6 9 29.93 1013 10 16.0934 N/A
11:53 am 11:53 Sunny 95 35 48 8.9 20 20 N N/A 29.91 1013 10 16.0934 N/A
12:53 pm 12:53 Sunny 98 36.7 47 8.3 17 17 N N/A 29.88 1012 10 16.0934 N/A
1:53 pm 13:53 Sunny 99 37.2 47 8.3 17 17 VRB 6 9 29.85 1011 10 16.0934 N/A
2:53 pm 14:53 Sunny 101 38.3 46 7.8 15 15 ENE 9 15 29.82 1010 10 16.0934 N/A
3:53 pm 15:53 Sunny 101 38.3 44 6.7 14 14 N 5 7 29.79 1009 10 16.0934 N/A
4:53 pm 16:53 Sunny 99 37.2 45 7.2 16 16 N N/A 29.78 1009 10 16.0934 N/A
5:53 pm 17:53 Sunny 100 37.8 45 7.2 15 15 ENE 3 6 29.78 1009 10 16.0934 N/A
6:53 pm 18:53 Sunny 97 36.1 45 7.2 17 17 SW 14 22 29.79 1009 10 16.0934 N/A
7:53 pm 19:53 Clear 96 35.6 46 7.8 18 18 W 13 20 29.81 1010 10 16.0934 N/A
8:53 pm 20:53 Clear 96 35.6 42 5.6 15 15 NNW 9 15 29.83 1010 10 16.0934 N/A
9:53 pm 21:53 Clear 91 32.8 45 7.2 20 20 NNW 29 46 29.85 1011 10 16.0934 N/A
10:53 pm 22:53 Clear 88 31.1 47 8.3 24 24 NNW 21 33 29.88 1012 10 16.0934 N/A
11:53 pm 23:53 Clear 89 31.7 45 7.2 22 22 NW 13 20 29.87 1012 10 16.0934 N/A

Powered by AerisWeather